Time,TemperatureF,DewpointF,PressureIn,WindDirection,WindDirectionDegrees,WindSpeedMPH,WindSpeedGustMPH,Humidity,HourlyPrecipIn,Conditions,Clouds,dailyrainin,SoftwareType,DateUTC
2013-03-03 00:00:00,61.1,23.0,29.87,South,186,8.0,12.0,23,0.00,CLR,,0.00,WeatherDisplay:10.37,2013-03-03 08:00:00,
2013-03-03 00:10:00,62.8,23.3,29.86,SSW,203,8.0,16.0,22,0.00,CLR,,0.00,WeatherDisplay:10.37,2013-03-03 08:10:00,
2013-03-03 00:20:00,61.8,22.5,29.87,SSW,207,12.0,16.0,22,0.00,CLR,,0.00,WeatherDisplay:10.37,2013-03-03 08:20:00,
2013-03-03 00:30:00,61.9,23.6,29.86,SSW,201,10.0,18.0,23,0.00,CLR,,0.00,WeatherDisplay:10.37,2013-03-03 08:30:00,
2013-03-03 00:40:00,62.3,24.0,29.87,SSW,199,14.0,16.0,23,0.00,CLR,,0.00,WeatherDisplay:10.37,2013-03-03 08:40:00,
2013-03-03 00:50:00,61.8,23.6,29.86,SSW,198,9.0,14.0,23,0.00,CLR,,0.00,WeatherDisplay:10.37,2013-03-03 08:50:00,
2013-03-03 01:00:00,64.7,23.8,29.86,SW,231,7.0,13.0,21,0.00,CLR,,0.00,WeatherDisplay:10.37,2013-03-03 09:00:00,
2013-03-03 01:05:00,65.3,24.3,29.87,WSW,247,9.0,17.0,21,0.00,CLR,,0.00,WeatherDisplay:10.37,2013-03-03 09:05:00,
2013-03-03 01:10:00,65.6,24.6,29.86,WSW,244,17.0,21.0,21,0.00,CLR,,0.00,WeatherDisplay:10.37,2013-03-03 09:10:00,
2013-03-03 01:20:00,65.8,23.6,29.85,WSW,248,14.0,25.0,20,0.00,CLR,,0.00,WeatherDisplay:10.37,2013-03-03 09:20:00,
2013-03-03 01:30:00,65.8,24.8,29.84,West,260,15.0,23.0,21,0.00,CLR,,0.00,WeatherDisplay:10.37,2013-03-03 09:30:00,
2013-03-03 01:40:00,65.9,24.8,29.84,WSW,240,17.0,22.0,21,0.00,CLR,,0.00,WeatherDisplay:10.37,2013-03-03 09:40:00,
2013-03-03 01:50:00,65.2,25.4,29.85,SW,234,14.0,20.0,22,0.00,CLR,,0.00,WeatherDisplay:10.37,2013-03-03 09:50:00,
2013-03-03 02:00:00,65.0,25.2,29.84,SW,232,15.0,22.0,22,0.00,CLR,,0.00,WeatherDisplay:10.37,2013-03-03 10:00:00,
2013-03-03 02:05:00,65.2,24.2,29.84,SW,233,13.0,20.0,21,0.00,CLR,,0.00,WeatherDisplay:10.37,2013-03-03 10:05:00,
2013-03-03 02:10:00,65.0,25.2,29.83,SW,229,15.0,20.0,22,0.00,CLR,,0.00,WeatherDisplay:10.37,2013-03-03 10:10:00,
2013-03-03 02:20:00,64.3,24.6,29.83,SW,229,15.0,20.0,22,0.00,CLR,,0.00,WeatherDisplay:10.37,2013-03-03 10:20:00,
2013-03-03 02:30:00,64.2,24.5,29.82,SW,226,13.0,18.0,22,0.00,CLR,,0.00,WeatherDisplay:10.37,2013-03-03 10:30:00,
2013-03-03 02:40:00,64.2,23.4,29.82,SW,235,10.0,18.0,21,0.00,CLR,,0.00,WeatherDisplay:10.37,2013-03-03 10:40:00,
2013-03-03 02:50:00,63.5,22.8,29.82,WSW,237,10.0,14.0,21,0.00,CLR,,0.00,WeatherDisplay:10.37,2013-03-03 10:50:00,
2013-03-03 03:00:00,63.3,23.8,29.82,SW,233,9.0,14.0,22,0.00,CLR,,0.00,WeatherDisplay:10.37,2013-03-03 11:00:00,
2013-03-03 03:05:00,63.2,23.7,29.82,SW,224,10.0,14.0,22,0.00,CLR,,0.00,WeatherDisplay:10.37,2013-03-03 11:05:00,
2013-03-03 03:10:00,63.5,25.0,29.82,SW,223,13.0,18.0,23,0.00,CLR,,0.00,WeatherDisplay:10.37,2013-03-03 11:10:00,
2013-03-03 03:20:00,63.2,23.7,29.82,SW,216,13.0,17.0,22,0.00,CLR,,0.00,WeatherDisplay:10.37,2013-03-03 11:20:00,
2013-03-03 03:30:00,62.9,24.5,29.83,SW,219,13.0,16.0,23,0.00,CLR,,0.00,WeatherDisplay:10.37,2013-03-03 11:30:00,
2013-03-03 03:40:00,62.6,25.3,29.82,SW,223,14.0,18.0,24,0.00,CLR,,0.00,WeatherDisplay:10.37,2013-03-03 11:40:00,
2013-03-03 03:50:00,62.0,24.8,29.82,SSW,208,9.0,16.0,24,0.00,CLR,,0.00,WeatherDisplay:10.37,2013-03-03 11:50:00,
2013-03-03 04:00:00,60.3,23.3,29.82,SSW,200,7.0,13.0,24,0.00,CLR,,0.00,WeatherDisplay:10.37,2013-03-03 12:00:00,
2013-03-03 04:05:00,59.8,22.9,29.82,SSW,195,5.0,10.0,24,0.00,CLR,,0.00,WeatherDisplay:10.37,2013-03-03 12:05:00,
2013-03-03 04:10:00,59.4,23.6,29.82,SSW,193,3.0,10.0,25,0.00,CLR,,0.00,WeatherDisplay:10.37,2013-03-03 12:10:00,
2013-03-03 04:20:00,59.0,23.2,29.82,South,191,9.0,15.0,25,0.00,CLR,,0.00,WeatherDisplay:10.37,2013-03-03 12:20:00,
2013-03-03 04:30:00,59.0,23.2,29.83,SSW,200,10.0,20.0,25,0.00,CLR,,0.00,WeatherDisplay:10.37,2013-03-03 12:30:00,
2013-03-03 04:40:00,58.4,23.6,29.82,South,191,8.0,15.0,26,0.00,CLR,,0.00,WeatherDisplay:10.37,2013-03-03 12:40:00,
2013-03-03 04:50:00,57.8,24.0,29.82,SSW,197,7.0,13.0,27,0.00,CLR,,0.00,WeatherDisplay:10.37,2013-03-03 12:50:00,
2013-03-03 05:00:00,57.8,24.0,29.82,SSW,199,6.0,16.0,27,0.00,CLR,,0.00,WeatherDisplay:10.37,2013-03-03 13:00:00,
2013-03-03 05:10:00,57.5,23.7,29.82,SSW,195,9.0,14.0,27,0.00,CLR,,0.00,WeatherDisplay:10.37,2013-03-03 13:10:00,
2013-03-03 05:20:00,57.8,24.0,29.82,SSW,199,12.0,17.0,27,0.00,CLR,,0.00,WeatherDisplay:10.37,2013-03-03 13:20:00,
2013-03-03 05:30:00,57.6,23.8,29.84,SSW,207,9.0,15.0,27,0.00,CLR,,0.00,WeatherDisplay:10.37,2013-03-03 13:30:00,
2013-03-03 05:40:00,57.3,23.6,29.84,SSW,207,8.0,14.0,27,0.00,CLR,,0.00,WeatherDisplay:10.37,2013-03-03 13:40:00,
2013-03-03 05:50:00,57.5,24.6,29.84,SSW,201,13.0,16.0,28,0.00,CLR,,0.00,WeatherDisplay:10.37,2013-03-03 13:50:00,
2013-03-03 06:00:00,57.9,24.9,29.83,SSW,211,10.0,16.0,28,0.00,CLR,,0.00,WeatherDisplay:10.37,2013-03-03 14:00:00,
2013-03-03 06:05:00,57.8,24.9,29.83,SW,217,10.0,13.0,28,0.00,CLR,,0.00,WeatherDisplay:10.37,2013-03-03 14:05:00,
2013-03-03 06:10:00,58.1,25.1,29.83,SW,217,7.0,12.0,28,0.00,CLR,,0.00,WeatherDisplay:10.37,2013-03-03 14:10:00,
2013-03-03 06:20:00,58.7,25.7,29.82,SW,216,10.0,15.0,28,0.00,CLR,,0.00,WeatherDisplay:10.37,2013-03-03 14:20:00,
2013-03-03 06:30:00,58.4,25.4,29.83,SW,224,13.0,14.0,28,0.00,CLR,,0.00,WeatherDisplay:10.37,2013-03-03 14:30:00,
2013-03-03 06:40:00,58.7,25.6,29.83,SW,223,10.0,12.0,28,0.00,CLR,,0.00,WeatherDisplay:10.37,2013-03-03 14:40:00,
2013-03-03 06:50:00,59.9,26.7,29.82,SW,233,10.0,13.0,28,0.00,CLR,,0.00,WeatherDisplay:10.37,2013-03-03 14:50:00,
2013-03-03 07:00:00,60.4,27.1,29.82,SW,221,10.0,15.0,28,0.00,CLR,,0.00,WeatherDisplay:10.37,2013-03-03 15:00:00,
2013-03-03 07:05:00,60.2,26.9,29.82,SW,222,12.0,15.0,28,0.00,CLR,,0.00,WeatherDisplay:10.37,2013-03-03 15:05:00,
2013-03-03 07:10:00,60.5,27.2,29.82,SW,217,12.0,17.0,28,0.00,CLR,,0.00,WeatherDisplay:10.37,2013-03-03 15:10:00,
2013-03-03 07:20:00,61.0,26.7,29.82,SW,216,14.0,20.0,27,0.00,CLR,,0.00,WeatherDisplay:10.37,2013-03-03 15:20:00,
2013-03-03 07:30:00,61.6,27.3,29.82,SW,217,13.0,20.0,27,0.00,CLR,,0.00,WeatherDisplay:10.37,2013-03-03 15:30:00,
2013-03-03 07:40:00,62.5,26.1,29.83,SW,221,14.0,18.0,25,0.00,CLR,,0.00,WeatherDisplay:10.37,2013-03-03 15:40:00,
2013-03-03 07:50:00,62.7,26.3,29.83,SSW,213,14.0,18.0,25,0.00,CLR,,0.00,WeatherDisplay:10.37,2013-03-03 15:50:00,
2013-03-03 08:00:00,63.4,26.9,29.83,SSW,200,14.0,22.0,25,0.00,CLR,,0.00,WeatherDisplay:10.37,2013-03-03 16:00:00,
2013-03-03 08:10:00,64.0,26.4,29.83,SSW,201,13.0,18.0,24,0.00,CLR,,0.00,WeatherDisplay:10.37,2013-03-03 16:10:00,
2013-03-03 08:20:00,64.5,26.9,29.82,SW,214,15.0,22.0,24,0.00,CLR,,0.00,WeatherDisplay:10.37,2013-03-03 16:20:00,
2013-03-03 08:30:00,64.2,26.6,29.83,SW,214,16.0,21.0,24,0.00,CLR,,0.00,WeatherDisplay:10.37,2013-03-03 16:30:00,
2013-03-03 08:40:00,65.3,26.5,29.82,SW,215,12.0,20.0,23,0.00,CLR,,0.00,WeatherDisplay:10.37,2013-03-03 16:40:00,
2013-03-03 08:50:00,66.3,27.4,29.82,SW,236,15.0,20.0,23,0.00,CLR,,0.00,WeatherDisplay:10.37,2013-03-03 16:50:00,
2013-03-03 09:00:00,66.9,27.9,29.81,WSW,248,15.0,24.0,23,0.00,CLR,,0.00,WeatherDisplay:10.37,2013-03-03 17:00:00,
2013-03-03 09:05:00,66.8,27.8,29.80,WSW,258,13.0,26.0,23,0.00,CLR,,0.00,WeatherDisplay:10.37,2013-03-03 17:05:00,
2013-03-03 09:10:00,67.0,27.9,29.80,WSW,257,15.0,22.0,23,0.00,CLR,,0.00,WeatherDisplay:10.37,2013-03-03 17:10:00,
2013-03-03 09:20:00,67.6,28.5,29.80,WSW,241,13.0,20.0,23,0.00,CLR,,0.00,WeatherDisplay:10.37,2013-03-03 17:20:00,
2013-03-03 09:30:00,67.4,28.3,29.80,WSW,247,14.0,18.0,23,0.00,CLR,,0.00,WeatherDisplay:10.37,2013-03-03 17:30:00,
2013-03-03 09:40:00,68.1,28.9,29.79,SW,232,14.0,22.0,23,0.00,CLR,,0.00,WeatherDisplay:10.37,2013-03-03 17:40:00,
2013-03-03 09:50:00,68.4,29.1,29.79,SW,236,16.0,23.0,23,0.00,CLR,,0.00,WeatherDisplay:10.37,2013-03-03 17:50:00,
2013-03-03 10:00:00,69.4,29.9,29.78,WSW,244,17.0,21.0,23,0.00,CLR,,0.00,WeatherDisplay:10.37,2013-03-03 18:00:00,
2013-03-03 10:05:00,69.2,28.7,29.78,WSW,254,16.0,22.0,22,0.00,CLR,,0.00,WeatherDisplay:10.37,2013-03-03 18:05:00,
2013-03-03 10:10:00,69.8,29.2,29.78,WSW,244,17.0,32.0,22,0.00,CLR,,0.00,WeatherDisplay:10.37,2013-03-03 18:10:00,
2013-03-03 10:20:00,69.0,30.7,29.78,WSW,250,18.0,24.0,24,0.00,CLR,,0.00,WeatherDisplay:10.37,2013-03-03 18:20:00,
2013-03-03 10:30:00,69.6,30.2,29.78,WSW,252,15.0,29.0,23,0.00,CLR,,0.00,WeatherDisplay:10.37,2013-03-03 18:30:00,
2013-03-03 10:40:00,69.8,30.3,29.77,WSW,241,23.0,32.0,23,0.00,CLR,,0.00,WeatherDisplay:10.37,2013-03-03 18:40:00,
2013-03-03 10:50:00,70.5,30.9,29.77,SW,235,16.0,29.0,23,0.00,CLR,,0.00,WeatherDisplay:10.37,2013-03-03 18:50:00,
2013-03-03 11:00:00,69.7,31.2,29.77,WSW,237,23.0,33.0,24,0.00,CLR,,0.00,WeatherDisplay:10.37,2013-03-03 19:00:00,
2013-03-03 11:05:00,69.8,30.3,29.77,SW,236,20.0,29.0,23,0.00,CLR,,0.00,WeatherDisplay:10.37,2013-03-03 19:05:00,
2013-03-03 11:10:00,70.1,30.6,29.76,SW,226,22.0,30.0,23,0.00,CLR,,0.00,WeatherDisplay:10.37,2013-03-03 19:10:00,
2013-03-03 11:20:00,69.8,31.4,29.76,SW,233,21.0,27.0,24,0.00,CLR,,0.00,WeatherDisplay:10.37,2013-03-03 19:20:00,
2013-03-03 11:30:00,70.9,31.2,29.75,SW,236,24.0,29.0,23,0.00,CLR,,0.00,WeatherDisplay:10.37,2013-03-03 19:30:00,
2013-03-03 11:40:00,70.6,32.1,29.75,WSW,239,22.0,29.0,24,0.00,CLR,,0.00,WeatherDisplay:10.37,2013-03-03 19:40:00,
2013-03-03 11:50:00,70.6,32.0,29.75,SW,225,21.0,27.0,24,0.00,CLR,,0.00,WeatherDisplay:10.37,2013-03-03 19:50:00,
2013-03-03 12:00:00,70.2,32.7,29.73,SW,232,20.0,27.0,25,0.00,CLR,,0.00,WeatherDisplay:10.37,2013-03-03 20:00:00,
2013-03-03 12:05:00,69.9,32.5,29.73,SW,233,21.0,28.0,25,0.00,CLR,,0.00,WeatherDisplay:10.37,2013-03-03 20:05:00,
2013-03-03 12:10:00,69.6,32.2,29.73,WSW,237,21.0,29.0,25,0.00,CLR,,0.00,WeatherDisplay:10.37,2013-03-03 20:10:00,
2013-03-03 12:20:00,70.1,32.6,29.73,West,261,16.0,26.0,25,0.00,CLR,,0.00,WeatherDisplay:10.37,2013-03-03 20:20:00,
2013-03-03 12:30:00,68.9,32.6,29.73,West,259,16.0,22.0,26,0.00,CLR,,0.00,WeatherDisplay:10.37,2013-03-03 20:30:00,
2013-03-03 12:40:00,69.2,32.9,29.72,West,267,15.0,22.0,26,0.00,CLR,,0.00,WeatherDisplay:10.37,2013-03-03 20:40:00,
2013-03-03 12:50:00,68.9,33.5,29.72,West,267,20.0,25.0,27,0.00,CLR,,0.00,WeatherDisplay:10.37,2013-03-03 20:50:00,
2013-03-03 13:00:00,69.2,33.8,29.71,WSW,252,20.0,26.0,27,0.00,CLR,,0.00,WeatherDisplay:10.37,2013-03-03 21:00:00,
2013-03-03 13:05:00,68.4,33.1,29.71,WSW,248,20.0,26.0,27,0.00,CLR,,0.00,WeatherDisplay:10.37,2013-03-03 21:05:00,
2013-03-03 13:10:00,69.4,33.0,29.71,WSW,247,18.0,26.0,26,0.00,CLR,,0.00,WeatherDisplay:10.37,2013-03-03 21:10:00,
2013-03-03 13:20:00,68.4,33.1,29.71,WSW,251,20.0,28.0,27,0.00,CLR,,0.00,WeatherDisplay:10.37,2013-03-03 21:20:00,
2013-03-03 13:30:00,67.9,33.5,29.71,WSW,246,17.0,26.0,28,0.00,CLR,,0.00,WeatherDisplay:10.37,2013-03-03 21:30:00,
2013-03-03 13:40:00,68.7,33.4,29.71,WSW,251,20.0,26.0,27,0.00,CLR,,0.00,WeatherDisplay:10.37,2013-03-03 21:40:00,
2013-03-03 13:50:00,68.7,33.4,29.72,WSW,247,21.0,28.0,27,0.00,CLR,,0.00,WeatherDisplay:10.37,2013-03-03 21:50:00,
2013-03-03 14:00:00,68.2,32.9,29.71,WSW,251,21.0,27.0,27,0.00,CLR,,0.00,WeatherDisplay:10.37,2013-03-03 22:00:00,
2013-03-03 14:05:00,67.7,32.5,29.71,WSW,251,20.0,26.0,27,0.00,CLR,,0.00,WeatherDisplay:10.37,2013-03-03 22:05:00,
2013-03-03 14:10:00,67.9,32.6,29.72,WSW,247,23.0,30.0,27,0.00,CLR,,0.00,WeatherDisplay:10.37,2013-03-03 22:10:00,
2013-03-03 14:20:00,68.1,32.8,29.71,WSW,251,21.0,26.0,27,0.00,CLR,,0.00,WeatherDisplay:10.37,2013-03-03 22:20:00,
2013-03-03 14:30:00,66.8,31.7,29.72,WSW,253,20.0,29.0,27,0.00,CLR,,0.00,WeatherDisplay:10.37,2013-03-03 22:30:00,
2013-03-03 14:40:00,66.5,32.4,29.72,WSW,244,21.0,28.0,28,0.00,CLR,,0.00,WeatherDisplay:10.37,2013-03-03 22:40:00,
2013-03-03 14:50:00,67.4,32.2,29.72,WSW,243,20.0,26.0,27,0.00,CLR,,0.00,WeatherDisplay:10.37,2013-03-03 22:50:00,
2013-03-03 15:00:00,66.5,32.3,29.73,WSW,242,18.0,30.0,28,0.00,CLR,,0.00,WeatherDisplay:10.37,2013-03-03 23:00:00,
2013-03-03 15:10:00,66.3,31.3,29.73,WSW,249,22.0,27.0,27,0.00,CLR,,0.00,WeatherDisplay:10.37,2013-03-03 23:10:00,
2013-03-03 15:20:00,66.4,31.4,29.72,WSW,256,21.0,31.0,27,0.00,CLR,,0.00,WeatherDisplay:10.37,2013-03-03 23:20:00,
2013-03-03 15:30:00,66.4,31.4,29.73,WSW,247,22.0,28.0,27,0.00,CLR,,0.00,WeatherDisplay:10.37,2013-03-03 23:30:00,
2013-03-03 15:40:00,66.1,31.1,29.72,WSW,250,23.0,32.0,27,0.00,CLR,,0.00,WeatherDisplay:10.37,2013-03-03 23:40:00,
2013-03-03 15:50:00,66.4,30.4,29.72,WSW,249,21.0,27.0,26,0.00,CLR,,0.00,WeatherDisplay:10.37,2013-03-03 23:50:00,
2013-03-03 16:00:00,65.6,30.7,29.72,WSW,257,22.0,32.0,27,0.00,CLR,,0.00,WeatherDisplay:10.37,2013-03-04 00:00:00,
2013-03-03 16:05:00,65.8,30.9,29.72,WSW,245,20.0,33.0,27,0.00,CLR,,0.00,WeatherDisplay:10.37,2013-03-04 00:05:00,
2013-03-03 16:10:00,65.5,30.6,29.72,WSW,244,22.0,28.0,27,0.00,CLR,,0.00,WeatherDisplay:10.37,2013-03-04 00:10:00,
2013-03-03 16:20:00,65.0,31.1,29.72,WSW,237,24.0,28.0,28,0.00,CLR,,0.00,WeatherDisplay:10.37,2013-03-04 00:20:00,
2013-03-03 16:30:00,64.3,30.5,29.72,WSW,245,22.0,32.0,28,0.00,CLR,,0.00,WeatherDisplay:10.37,2013-03-04 00:30:00,
2013-03-03 16:40:00,64.4,30.6,29.71,SW,229,25.0,33.0,28,0.00,CLR,,0.00,WeatherDisplay:10.37,2013-03-04 00:40:00,
2013-03-03 16:50:00,63.7,30.8,29.71,WSW,246,30.0,33.0,29,0.00,,,0.00,WeatherDisplay:10.37,2013-03-04 00:50:00,
2013-03-03 17:00:00,63.2,31.2,29.71,WSW,243,30.0,38.0,30,0.00,,,0.00,WeatherDisplay:10.37,2013-03-04 01:00:00,
2013-03-03 17:05:00,62.9,30.9,29.71,SW,233,25.0,33.0,30,0.00,CLR,,0.00,WeatherDisplay:10.37,2013-03-04 01:05:00,
2013-03-03 17:10:00,62.6,30.7,29.71,SW,228,24.0,32.0,30,0.00,CLR,,0.00,WeatherDisplay:10.37,2013-03-04 01:10:00,
2013-03-03 17:20:00,62.0,31.0,29.70,SW,231,28.0,37.0,31,0.00,,,0.00,WeatherDisplay:10.37,2013-03-04 01:20:00,
2013-03-03 17:30:00,61.6,30.6,29.69,SW,233,26.0,40.0,31,0.00,,,0.00,WeatherDisplay:10.37,2013-03-04 01:30:00,
2013-03-03 17:40:00,61.5,30.6,29.69,SW,232,30.0,36.0,31,0.00,,,0.00,WeatherDisplay:10.37,2013-03-04 01:40:00,
2013-03-03 17:50:00,60.9,31.6,29.70,SW,235,23.0,35.0,33,0.00,CLR,,0.00,WeatherDisplay:10.37,2013-03-04 01:50:00,
2013-03-03 18:00:00,60.7,31.4,29.71,SW,234,25.0,34.0,33,0.00,CLR,,0.00,WeatherDisplay:10.37,2013-03-04 02:00:00,
2013-03-03 18:05:00,60.5,31.2,29.70,WSW,239,24.0,35.0,33,0.00,CLR,,0.00,WeatherDisplay:10.37,2013-03-04 02:05:00,
2013-03-03 18:10:00,60.7,31.4,29.70,WSW,246,26.0,36.0,33,0.00,,,0.00,WeatherDisplay:10.37,2013-03-04 02:10:00,
2013-03-03 18:20:00,60.2,31.7,29.70,WSW,241,24.0,35.0,34,0.00,CLR,,0.00,WeatherDisplay:10.37,2013-03-04 02:20:00,
2013-03-03 18:30:00,59.9,31.4,29.69,WSW,242,28.0,35.0,34,0.00,,,0.00,WeatherDisplay:10.37,2013-03-04 02:30:00,
2013-03-03 18:40:00,59.5,32.5,29.69,WSW,241,25.0,35.0,36,0.00,CLR,,0.00,WeatherDisplay:10.37,2013-03-04 02:40:00,
2013-03-03 18:50:00,59.2,32.2,29.69,WSW,243,25.0,33.0,36,0.00,CLR,,0.00,WeatherDisplay:10.37,2013-03-04 02:50:00,
2013-03-03 19:00:00,59.2,32.2,29.70,WSW,240,24.0,37.0,36,0.00,CLR,,0.00,WeatherDisplay:10.37,2013-03-04 03:00:00,
2013-03-03 19:05:00,59.2,32.2,29.69,WSW,243,28.0,33.0,36,0.00,CLR,,0.00,WeatherDisplay:10.37,2013-03-04 03:05:00,
2013-03-03 19:10:00,59.0,32.0,29.70,WSW,246,22.0,31.0,36,0.00,CLR,,0.00,WeatherDisplay:10.37,2013-03-04 03:10:00,
2013-03-03 19:20:00,58.6,32.4,29.70,SW,236,16.0,25.0,37,0.00,CLR,,0.00,WeatherDisplay:10.37,2013-03-04 03:20:00,
2013-03-03 19:30:00,58.3,32.2,29.69,SW,225,15.0,24.0,37,0.00,CLR,,0.00,WeatherDisplay:10.37,2013-03-04 03:30:00,
2013-03-03 19:40:00,58.3,32.1,29.69,SW,233,13.0,20.0,37,0.00,CLR,,0.00,WeatherDisplay:10.37,2013-03-04 03:40:00,
2013-03-03 19:50:00,58.8,30.5,29.69,WSW,243,7.0,12.0,34,0.00,CLR,,0.00,WeatherDisplay:10.37,2013-03-04 03:50:00,
2013-03-03 20:00:00,58.4,30.1,29.69,SSW,210,10.0,17.0,34,0.00,CLR,,0.00,WeatherDisplay:10.37,2013-03-04 04:00:00,
2013-03-03 20:05:00,58.9,29.8,29.69,SSW,207,7.0,20.0,33,0.00,CLR,,0.00,WeatherDisplay:10.37,2013-03-04 04:05:00,
2013-03-03 20:10:00,58.6,30.3,29.69,SSW,200,9.0,15.0,34,0.00,CLR,,0.00,WeatherDisplay:10.37,2013-03-04 04:10:00,
2013-03-03 20:20:00,58.1,30.6,29.69,SSW,199,13.0,22.0,35,0.00,CLR,,0.00,WeatherDisplay:10.37,2013-03-04 04:20:00,
2013-03-03 20:30:00,57.8,31.0,29.69,SSW,205,15.0,23.0,36,0.00,CLR,,0.00,WeatherDisplay:10.37,2013-03-04 04:30:00,
2013-03-03 20:40:00,58.3,30.7,29.70,SSW,206,16.0,27.0,35,0.00,CLR,,0.00,WeatherDisplay:10.37,2013-03-04 04:40:00,
2013-03-03 20:50:00,58.1,30.6,29.69,SSW,210,18.0,24.0,35,0.00,CLR,,0.00,WeatherDisplay:10.37,2013-03-04 04:50:00,
2013-03-03 21:00:00,59.4,28.0,29.69,SW,232,8.0,23.0,30,0.00,CLR,,0.00,WeatherDisplay:10.37,2013-03-04 05:00:00,
2013-03-03 21:05:00,59.5,28.8,29.69,WSW,237,7.0,16.0,31,0.00,CLR,,0.00,WeatherDisplay:10.37,2013-03-04 05:05:00,
2013-03-03 21:10:00,58.7,28.9,29.69,SW,234,1.0,12.0,32,0.00,CLR,,0.00,WeatherDisplay:10.37,2013-03-04 05:10:00,
2013-03-03 21:20:00,57.9,28.2,29.69,SW,229,3.0,8.0,32,0.00,CLR,,0.00,WeatherDisplay:10.37,2013-03-04 05:20:00,
2013-03-03 21:30:00,59.2,26.1,29.68,WSW,247,9.0,12.0,28,0.00,CLR,,0.00,WeatherDisplay:10.37,2013-03-04 05:30:00,
2013-03-03 21:40:00,58.9,25.9,29.69,West,277,5.0,8.0,28,0.00,CLR,,0.00,WeatherDisplay:10.37,2013-03-04 05:40:00,
2013-03-03 21:50:00,58.9,26.6,29.69,WNW,287,9.0,14.0,29,0.00,CLR,,0.00,WeatherDisplay:10.37,2013-03-04 05:50:00,
2013-03-03 22:00:00,58.6,26.4,29.69,WNW,289,3.0,7.0,29,0.00,CLR,,0.00,WeatherDisplay:10.37,2013-03-04 06:00:00,
2013-03-03 22:05:00,58.4,26.2,29.69,WNW,301,2.0,9.0,29,0.00,CLR,,0.00,WeatherDisplay:10.37,2013-03-04 06:05:00,
2013-03-03 22:10:00,58.2,26.9,29.70,NW,313,0.0,3.0,30,0.00,CLR,,0.00,WeatherDisplay:10.37,2013-03-04 06:10:00,
2013-03-03 22:20:00,57.2,26.8,29.71,NW,313,1.0,3.0,31,0.00,CLR,,0.00,WeatherDisplay:10.37,2013-03-04 06:20:00,
2013-03-03 22:30:00,56.9,28.1,29.71,NW,313,1.0,4.0,33,0.00,CLR,,0.00,WeatherDisplay:10.37,2013-03-04 06:30:00,
2013-03-03 22:40:00,56.5,28.4,29.71,NW,313,0.0,4.0,34,0.00,CLR,,0.00,WeatherDisplay:10.37,2013-03-04 06:40:00,
2013-03-03 22:50:00,55.7,28.4,29.72,NW,313,0.0,0.0,35,0.00,CLR,,0.00,WeatherDisplay:10.37,2013-03-04 06:50:00,
2013-03-03 23:00:00,54.8,28.3,29.73,NW,313,0.0,0.0,36,0.00,CLR,,0.00,WeatherDisplay:10.37,2013-03-04 07:00:00,
2013-03-03 23:10:00,53.0,28.1,29.73,NW,313,0.0,0.0,38,0.00,CLR,,0.00,WeatherDisplay:10.37,2013-03-04 07:10:00,
2013-03-03 23:20:00,51.7,27.5,29.74,NW,313,0.0,0.0,39,0.00,CLR,,0.00,WeatherDisplay:10.37,2013-03-04 07:20:00,
2013-03-03 23:30:00,52.2,29.2,29.75,NW,313,2.0,4.0,41,0.00,CLR,,0.00,WeatherDisplay:10.37,2013-03-04 07:30:00,
2013-03-03 23:40:00,52.9,28.6,29.75,NW,311,3.0,5.0,39,0.00,CLR,,0.00,WeatherDisplay:10.37,2013-03-04 07:40:00,
2013-03-03 23:50:00,54.1,28.4,29.75,WNW,302,2.0,5.0,37,0.00,CLR,,0.00,WeatherDisplay:10.37,2013-03-04 07:50:00,